Time,TemperatureF,DewpointF,PressureIn,WindDirection,WindDirectionDegrees,WindSpeedMPH,WindSpeedGustMPH,Humidity,HourlyPrecipIn,Conditions,Clouds,dailyrainin,SoftwareType,DateUTC
2013-03-25 00:01:00,53.3,33.6,30.10,NNE,32,13.0,16.0,47,0.00,,,0.00,Wunderground v.1.15,2013-03-25 06:01:00,
2013-03-25 00:06:00,53.1,33.9,30.10,NE,42,12.0,21.0,48,0.00,,,0.00,Wunderground v.1.15,2013-03-25 06:06:00,
2013-03-25 00:16:00,52.9,33.2,30.10,NE,43,12.0,21.0,47,0.00,,,0.00,Wunderground v.1.15,2013-03-25 06:16:00,
2013-03-25 00:21:00,52.9,32.7,30.11,East,91,14.0,21.0,46,0.00,,,0.00,Wunderground v.1.15,2013-03-25 06:21:00,
2013-03-25 00:26:00,52.8,32.6,30.11,NNE,18,14.0,21.0,46,0.00,,,0.00,Wunderground v.1.15,2013-03-25 06:26:00,
2013-03-25 00:36:00,52.4,32.7,30.11,NE,43,11.0,14.0,47,0.00,,,0.00,Wunderground v.1.15,2013-03-25 06:36:00,
2013-03-25 00:41:00,52.3,32.6,30.11,NE,36,13.0,21.0,47,0.00,,,0.00,Wunderground v.1.15,2013-03-25 06:41:00,
2013-03-25 00:46:00,52.2,32.6,30.11,NNE,22,13.0,21.0,47,0.00,,,0.00,Wunderground v.1.15,2013-03-25 06:46:00,
2013-03-25 00:51:00,52.0,31.8,30.11,NE,36,13.0,21.0,46,0.00,,,0.00,Wunderground v.1.15,2013-03-25 06:51:00,
2013-03-25 00:56:00,51.5,31.9,30.11,NNE,28,13.0,21.0,47,0.00,,,0.00,Wunderground v.1.15,2013-03-25 06:56:00,
2013-03-25 01:01:00,51.3,31.7,30.11,NE,36,12.0,21.0,47,0.00,,,0.00,Wunderground v.1.15,2013-03-25 07:01:00,
2013-03-25 01:06:00,51.0,31.5,30.11,NE,34,12.0,21.0,47,0.00,,,0.00,Wunderground v.1.15,2013-03-25 07:06:00,
2013-03-25 01:11:00,50.8,31.3,30.11,North,9,12.0,12.0,47,0.00,,,0.00,Wunderground v.1.15,2013-03-25 07:11:00,
2013-03-25 01:16:00,50.6,31.6,30.11,NE,41,12.0,13.0,48,0.00,,,0.00,Wunderground v.1.15,2013-03-25 07:16:00,
2013-03-25 01:21:00,50.4,31.9,30.11,North,11,11.0,18.0,49,0.00,,,0.00,Wunderground v.1.15,2013-03-25 07:21:00,
2013-03-25 01:26:00,50.2,31.8,30.11,North,11,11.0,18.0,49,0.00,,,0.00,Wunderground v.1.15,2013-03-25 07:26:00,
2013-03-25 01:31:00,50.1,31.7,30.11,NE,54,11.0,18.0,49,0.00,,,0.00,Wunderground v.1.15,2013-03-25 07:31:00,
2013-03-25 01:36:00,50.1,32.2,30.11,North,4,11.0,18.0,50,0.00,,,0.00,Wunderground v.1.15,2013-03-25 07:36:00,
2013-03-25 01:41:00,50.1,32.2,30.11,NE,48,12.0,18.0,50,0.00,,,0.00,Wunderground v.1.15,2013-03-25 07:41:00,
2013-03-25 01:46:00,49.9,32.5,30.11,NE,45,12.0,18.0,51,0.00,,,0.00,Wunderground v.1.15,2013-03-25 07:46:00,
2013-03-25 01:51:00,49.9,33.0,30.10,NNE,32,11.0,18.0,52,0.00,,,0.00,Wunderground v.1.15,2013-03-25 07:51:00,
2013-03-25 01:56:00,49.8,32.9,30.10,ENE,64,11.0,18.0,52,0.00,,,0.00,Wunderground v.1.15,2013-03-25 07:56:00,
2013-03-25 02:01:00,49.6,33.2,30.10,NNE,28,10.0,18.0,53,0.00,,,0.00,Wunderground v.1.15,2013-03-25 08:01:00,
2013-03-25 02:06:00,49.6,33.6,30.10,North,357,10.0,18.0,54,0.00,,,0.00,Wunderground v.1.15,2013-03-25 08:06:00,
2013-03-25 02:11:00,49.6,34.1,30.10,NNE,30,11.0,11.0,55,0.00,,,0.00,Wunderground v.1.15,2013-03-25 08:11:00,
2013-03-25 02:16:00,49.5,34.0,30.10,NNE,27,11.0,12.0,55,0.00,,,0.00,Wunderground v.1.15,2013-03-25 08:16:00,
2013-03-25 02:21:00,49.5,34.4,30.10,NNE,21,12.0,12.0,56,0.00,,,0.00,Wunderground v.1.15,2013-03-25 08:21:00,
2013-03-25 02:26:00,49.4,34.3,30.11,NNE,25,11.0,16.0,56,0.00,,,0.00,Wunderground v.1.15,2013-03-25 08:26:00,
2013-03-25 02:31:00,49.3,34.3,30.11,NNW,345,10.0,18.0,56,0.00,,,0.00,Wunderground v.1.15,2013-03-25 08:31:00,
2013-03-25 02:36:00,49.4,34.3,30.11,NNE,15,10.0,18.0,56,0.00,,,0.00,Wunderground v.1.15,2013-03-25 08:36:00,
2013-03-25 02:46:00,49.2,34.2,30.11,NE,51,11.0,18.0,56,0.00,,,0.00,Wunderground v.1.15,2013-03-25 08:46:00,
2013-03-25 02:51:00,48.9,33.9,30.11,North,6,10.0,18.0,56,0.00,,,0.00,Wunderground v.1.15,2013-03-25 08:51:00,
2013-03-25 02:56:00,48.7,34.1,30.11,NNE,28,10.0,18.0,57,0.00,,,0.00,Wunderground v.1.15,2013-03-25 08:56:00,
2013-03-25 03:01:00,48.3,33.8,30.11,NNE,27,10.0,18.0,57,0.00,,,0.00,Wunderground v.1.15,2013-03-25 09:01:00,
2013-03-25 03:11:00,47.9,33.8,30.11,NNE,27,10.0,10.0,58,0.00,,,0.00,Wunderground v.1.15,2013-03-25 09:11:00,
2013-03-25 03:16:00,47.7,33.6,30.12,NNE,25,9.0,16.0,58,0.00,,,0.00,Wunderground v.1.15,2013-03-25 09:16:00,
2013-03-25 03:21:00,47.6,34.0,30.12,NNE,33,9.0,16.0,59,0.00,,,0.00,Wunderground v.1.15,2013-03-25 09:21:00,
2013-03-25 03:31:00,47.5,33.9,30.13,NNE,33,9.0,9.0,59,0.00,,,0.00,Wunderground v.1.15,2013-03-25 09:31:00,
2013-03-25 03:36:00,47.4,34.2,30.13,NNE,21,9.0,16.0,60,0.00,,,0.00,Wunderground v.1.15,2013-03-25 09:36:00,
2013-03-25 03:41:00,47.4,34.2,30.14,North,349,9.0,16.0,60,0.00,,,0.00,Wunderground v.1.15,2013-03-25 09:41:00,
2013-03-25 03:46:00,47.3,34.1,30.14,NNW,338,9.0,16.0,60,0.00,,,0.00,Wunderground v.1.15,2013-03-25 09:46:00,
2013-03-25 03:52:00,47.3,33.7,30.14,NNE,25,9.0,16.0,59,0.00,,,0.00,Wunderground v.1.15,2013-03-25 09:52:00,
2013-03-25 03:56:00,47.2,33.6,30.14,NNW,347,8.0,16.0,59,0.00,,,0.00,Wunderground v.1.15,2013-03-25 09:56:00,
2013-03-25 04:01:00,47.2,33.6,30.15,NNE,30,8.0,16.0,59,0.00,,,0.00,Wunderground v.1.15,2013-03-25 10:01:00,
2013-03-25 04:06:00,47.1,33.5,30.15,NNE,19,9.0,16.0,59,0.00,,,0.00,Wunderground v.1.15,2013-03-25 10:06:00,
2013-03-25 04:11:00,47.0,33.4,30.15,North,4,8.0,14.0,59,0.00,,,0.00,Wunderground v.1.15,2013-03-25 10:11:00,
2013-03-25 04:16:00,46.9,33.3,30.15,NNE,25,7.0,14.0,59,0.00,,,0.00,Wunderground v.1.15,2013-03-25 10:16:00,
2013-03-25 04:21:00,46.8,33.2,30.15,North,4,8.0,14.0,59,0.00,,,0.00,Wunderground v.1.15,2013-03-25 10:21:00,
2013-03-25 04:31:00,46.6,33.4,30.16,NNE,27,9.0,14.0,60,0.00,,,0.00,Wunderground v.1.15,2013-03-25 10:31:00,
2013-03-25 04:36:00,46.5,33.4,30.16,NNE,18,8.0,14.0,60,0.00,,,0.00,Wunderground v.1.15,2013-03-25 10:36:00,
2013-03-25 04:41:00,46.4,33.3,30.16,NNE,18,9.0,14.0,60,0.00,,,0.00,Wunderground v.1.15,2013-03-25 10:41:00,
2013-03-25 04:46:00,46.4,33.7,30.16,North,357,9.0,14.0,61,0.00,,,0.00,Wunderground v.1.15,2013-03-25 10:46:00,
2013-03-25 04:51:00,46.3,33.6,30.17,NNE,25,8.0,8.0,61,0.00,,,0.00,Wunderground v.1.15,2013-03-25 10:51:00,
2013-03-25 04:56:00,46.2,33.5,30.17,NNE,27,8.0,9.0,61,0.00,,,0.00,Wunderground v.1.15,2013-03-25 10:56:00,
2013-03-25 05:01:00,46.1,33.8,30.17,NNE,30,7.0,7.0,62,0.00,,,0.00,Wunderground v.1.15,2013-03-25 11:01:00,
2013-03-25 05:06:00,45.9,33.6,30.17,NNE,32,7.0,8.0,62,0.00,,,0.00,Wunderground v.1.15,2013-03-25 11:06:00,
2013-03-25 05:16:00,45.6,33.7,30.17,NE,34,8.0,12.0,63,0.00,,,0.00,Wunderground v.1.15,2013-03-25 11:16:00,
2013-03-25 05:21:00,45.4,33.9,30.17,NNE,30,7.0,12.0,64,0.00,,,0.00,Wunderground v.1.15,2013-03-25 11:21:00,
2013-03-25 05:26:00,45.4,33.9,30.18,North,6,7.0,12.0,64,0.00,,,0.00,Wunderground v.1.15,2013-03-25 11:26:00,
2013-03-25 05:31:00,45.3,33.8,30.18,NNE,32,7.0,12.0,64,0.00,,,0.00,Wunderground v.1.15,2013-03-25 11:31:00,
2013-03-25 05:36:00,45.2,34.1,30.18,NNE,19,7.0,12.0,65,0.00,,,0.00,Wunderground v.1.15,2013-03-25 11:36:00,
2013-03-25 05:41:00,45.2,34.1,30.18,North,360,7.0,12.0,65,0.00,,,0.00,Wunderground v.1.15,2013-03-25 11:41:00,
2013-03-25 05:46:00,45.2,34.1,30.18,NNE,22,8.0,12.0,65,0.00,,,0.00,Wunderground v.1.15,2013-03-25 11:46:00,
2013-03-25 05:51:00,45.2,34.1,30.18,NNE,27,8.0,8.0,65,0.00,,,0.00,Wunderground v.1.15,2013-03-25 11:51:00,
2013-03-25 05:56:00,45.2,34.5,30.18,North,8,8.0,12.0,66,0.00,,,0.00,Wunderground v.1.15,2013-03-25 11:56:00,
2013-03-25 06:01:00,45.2,34.5,30.19,North,4,7.0,7.0,66,0.00,,,0.00,Wunderground v.1.15,2013-03-25 12:01:00,
2013-03-25 06:06:00,45.2,34.5,30.19,NW,323,7.0,12.0,66,0.00,,,0.00,Wunderground v.1.15,2013-03-25 12:06:00,
2013-03-25 06:11:00,45.1,34.4,30.20,NNE,16,6.0,6.0,66,0.00,,,0.00,Wunderground v.1.15,2013-03-25 12:11:00,
2013-03-25 06:16:00,45.1,34.4,30.20,NE,39,6.0,12.0,66,0.00,,,0.00,Wunderground v.1.15,2013-03-25 12:16:00,
2013-03-25 06:21:00,45.0,34.7,30.20,North,4,7.0,12.0,67,0.00,,,0.00,Wunderground v.1.15,2013-03-25 12:21:00,
2013-03-25 06:31:00,45.0,34.7,30.21,NNE,15,7.0,7.0,67,0.00,,,0.00,Wunderground v.1.15,2013-03-25 12:31:00,
2013-03-25 06:36:00,45.1,34.8,30.21,North,9,6.0,12.0,67,0.00,,,0.00,Wunderground v.1.15,2013-03-25 12:36:00,
2013-03-25 06:41:00,45.1,35.2,30.21,NNW,333,6.0,6.0,68,0.00,,,0.00,Wunderground v.1.15,2013-03-25 12:41:00,
2013-03-25 06:51:00,45.7,35.7,30.22,NE,54,7.0,12.0,68,0.00,,,0.00,Wunderground v.1.15,2013-03-25 12:51:00,
2013-03-25 06:56:00,47.2,36.0,30.22,NE,40,11.0,12.0,65,0.00,,,0.00,Wunderground v.1.15,2013-03-25 12:56:00,
2013-03-25 07:06:00,48.7,35.8,30.22,NE,34,14.0,25.0,61,0.00,,,0.00,Wunderground v.1.15,2013-03-25 13:06:00,
2013-03-25 07:16:00,49.3,36.0,30.22,ENE,66,17.0,25.0,60,0.00,,,0.00,Wunderground v.1.15,2013-03-25 13:16:00,
2013-03-25 07:26:00,49.4,35.2,30.23,NNE,15,18.0,25.0,58,0.00,,,0.00,Wunderground v.1.15,2013-03-25 13:26:00,
2013-03-25 07:31:00,49.6,35.4,30.23,NE,41,18.0,25.0,58,0.00,,,0.00,Wunderground v.1.15,2013-03-25 13:31:00,
2013-03-25 07:36:00,49.7,35.1,30.24,NE,49,17.0,25.0,57,0.00,,,0.00,Wunderground v.1.15,2013-03-25 13:36:00,
2013-03-25 07:41:00,49.8,35.2,30.24,NE,52,19.0,25.0,57,0.00,,,0.00,Wunderground v.1.15,2013-03-25 13:41:00,
2013-03-25 07:46:00,50.0,34.9,30.25,NE,36,20.0,25.0,56,0.00,,,0.00,Wunderground v.1.15,2013-03-25 13:46:00,
2013-03-25 07:51:00,49.9,34.8,30.25,NE,39,20.0,25.0,56,0.00,,,0.00,Wunderground v.1.15,2013-03-25 13:51:00,
2013-03-25 08:01:00,50.1,36.7,30.26,NE,38,18.0,25.0,60,0.00,,,0.00,Wunderground v.1.15,2013-03-25 14:01:00,
2013-03-25 08:06:00,50.2,36.4,30.26,NE,38,19.0,32.0,59,0.00,,,0.00,Wunderground v.1.15,2013-03-25 14:06:00,
2013-03-25 08:11:00,49.9,34.8,30.27,NE,41,20.0,20.0,56,0.00,,,0.00,Wunderground v.1.15,2013-03-25 14:11:00,
2013-03-25 08:16:00,49.7,35.5,30.27,NE,47,22.0,22.0,58,0.00,,,0.00,Wunderground v.1.15,2013-03-25 14:16:00,
2013-03-25 08:26:00,49.6,34.5,30.28,ENE,63,22.0,32.0,56,0.00,,,0.00,Wunderground v.1.15,2013-03-25 14:26:00,
2013-03-25 08:31:00,50.0,36.2,30.28,NNE,30,21.0,32.0,59,0.00,,,0.00,Wunderground v.1.15,2013-03-25 14:31:00,
2013-03-25 08:36:00,49.8,34.7,30.28,NE,53,21.0,32.0,56,0.00,,,0.00,Wunderground v.1.15,2013-03-25 14:36:00,
2013-03-25 08:41:00,50.3,35.2,30.28,NE,37,21.0,21.0,56,0.00,,,0.00,Wunderground v.1.15,2013-03-25 14:41:00,
2013-03-25 08:46:00,50.3,34.7,30.29,ENE,60,19.0,32.0,55,0.00,,,0.00,Wunderground v.1.15,2013-03-25 14:46:00,
2013-03-25 08:56:00,50.8,35.2,30.30,NE,48,19.0,32.0,55,0.00,,,0.00,Wunderground v.1.15,2013-03-25 14:56:00,
2013-03-25 09:01:00,50.8,35.2,30.30,NNE,19,19.0,19.0,55,0.00,,,0.00,Wunderground v.1.15,2013-03-25 15:01:00,
2013-03-25 09:06:00,50.8,34.7,30.30,NE,40,20.0,20.0,54,0.00,,,0.00,Wunderground v.1.15,2013-03-25 15:06:00,
2013-03-25 09:16:00,51.1,35.5,30.30,NE,53,18.0,19.0,55,0.00,,,0.00,Wunderground v.1.15,2013-03-25 15:16:00,
2013-03-25 09:21:00,51.2,35.1,30.31,NE,46,18.0,28.0,54,0.00,,,0.00,Wunderground v.1.15,2013-03-25 15:21:00,
2013-03-25 09:26:00,51.6,35.5,30.31,NE,44,17.0,28.0,54,0.00,,,0.00,Wunderground v.1.15,2013-03-25 15:26:00,
2013-03-25 09:36:00,51.9,35.3,30.31,ENE,59,19.0,28.0,53,0.00,,,0.00,Wunderground v.1.15,2013-03-25 15:36:00,
2013-03-25 09:41:00,52.6,35.5,30.31,NE,48,18.0,28.0,52,0.00,,,0.00,Wunderground v.1.15,2013-03-25 15:41:00,
2013-03-25 09:46:00,52.9,32.1,30.31,NE,53,19.0,28.0,45,0.00,,,0.00,Wunderground v.1.15,2013-03-25 15:46:00,
2013-03-25 09:51:00,52.9,33.7,30.31,NE,47,21.0,28.0,48,0.00,,,0.00,Wunderground v.1.15,2013-03-25 15:51:00,
2013-03-25 09:56:00,53.2,32.9,30.31,ENE,64,20.0,28.0,46,0.00,,,0.00,Wunderground v.1.15,2013-03-25 15:56:00,
2013-03-25 10:06:00,53.2,32.9,30.32,NE,53,20.0,30.0,46,0.00,,,0.00,Wunderground v.1.15,2013-03-25 16:06:00,
2013-03-25 10:16:00,53.6,32.2,30.31,ENE,59,19.0,30.0,44,0.00,,,0.00,Wunderground v.1.15,2013-03-25 16:16:00,
2013-03-25 10:21:00,53.6,31.6,30.31,ENE,63,19.0,30.0,43,0.00,,,0.00,Wunderground v.1.15,2013-03-25 16:21:00,
2013-03-25 10:26:00,53.7,31.1,30.32,ENE,59,19.0,30.0,42,0.00,,,0.00,Wunderground v.1.15,2013-03-25 16:26:00,
2013-03-25 10:31:00,54.2,33.3,30.32,NE,51,19.0,19.0,45,0.00,,,0.00,Wunderground v.1.15,2013-03-25 16:31:00,
2013-03-25 10:36:00,54.4,31.8,30.32,ENE,75,17.0,20.0,42,0.00,,,0.00,Wunderground v.1.15,2013-03-25 16:36:00,
2013-03-25 10:41:00,54.0,33.1,30.32,NE,54,18.0,30.0,45,0.00,,,0.00,Wunderground v.1.15,2013-03-25 16:41:00,
2013-03-25 10:46:00,54.3,33.4,30.32,ENE,57,19.0,30.0,45,0.00,,,0.00,Wunderground v.1.15,2013-03-25 16:46:00,
2013-03-25 10:51:00,54.6,33.1,30.32,ENE,58,18.0,18.0,44,0.00,,,0.00,Wunderground v.1.15,2013-03-25 16:51:00,
2013-03-25 10:56:00,54.3,31.7,30.32,East,81,18.0,30.0,42,0.00,,,0.00,Wunderground v.1.15,2013-03-25 16:56:00,
2013-03-25 11:01:00,55.1,34.1,30.32,ENE,77,17.0,30.0,45,0.00,,,0.00,Wunderground v.1.15,2013-03-25 17:01:00,
2013-03-25 11:06:00,55.1,31.2,30.31,NE,44,17.0,30.0,40,0.00,,,0.00,Wunderground v.1.15,2013-03-25 17:06:00,
2013-03-25 11:11:00,55.5,33.3,30.31,ENE,78,17.0,25.0,43,0.00,,,0.00,Wunderground v.1.15,2013-03-25 17:11:00,
2013-03-25 11:16:00,55.4,32.7,30.31,ENE,65,17.0,25.0,42,0.00,,,0.00,Wunderground v.1.15,2013-03-25 17:16:00,
2013-03-25 11:26:00,55.5,30.9,30.30,ENE,75,18.0,19.0,39,0.00,,,0.00,Wunderground v.1.15,2013-03-25 17:26:00,
2013-03-25 11:36:00,56.1,32.1,30.30,ENE,70,19.0,19.0,40,0.00,,,0.00,Wunderground v.1.15,2013-03-25 17:36:00,
2013-03-25 11:41:00,56.2,28.2,30.30,NE,55,19.0,19.0,34,0.00,,,0.00,Wunderground v.1.15,2013-03-25 17:41:00,
2013-03-25 11:46:00,56.5,31.2,30.30,ENE,72,19.0,25.0,38,0.00,,,0.00,Wunderground v.1.15,2013-03-25 17:46:00,
2013-03-25 11:51:00,56.5,27.7,30.30,NE,56,19.0,25.0,33,0.00,,,0.00,Wunderground v.1.15,2013-03-25 17:51:00,
2013-03-25 11:56:00,56.4,31.1,30.30,ENE,67,19.0,25.0,38,0.00,,,0.00,Wunderground v.1.15,2013-03-25 17:56:00,
2013-03-25 12:01:00,56.4,26.9,30.29,ENE,57,19.0,25.0,32,0.00,,,0.00,Wunderground v.1.15,2013-03-25 18:01:00,
2013-03-25 12:06:00,56.6,28.5,30.29,NE,54,19.0,25.0,34,0.00,,,0.00,Wunderground v.1.15,2013-03-25 18:06:00,
2013-03-25 12:11:00,56.7,24.8,30.29,NE,39,20.0,20.0,29,0.00,,,0.00,Wunderground v.1.15,2013-03-25 18:11:00,
2013-03-25 12:16:00,56.8,28.0,30.28,ENE,77,19.0,25.0,33,0.00,,,0.00,Wunderground v.1.15,2013-03-25 18:16:00,
2013-03-25 12:21:00,56.7,27.9,30.28,ENE,74,18.0,25.0,33,0.00,,,0.00,Wunderground v.1.15,2013-03-25 18:21:00,
2013-03-25 12:26:00,57.4,27.0,30.28,NE,56,17.0,25.0,31,0.00,,,0.00,Wunderground v.1.15,2013-03-25 18:26:00,
2013-03-25 12:31:00,57.6,26.4,30.28,ENE,58,17.0,17.0,30,0.00,,,0.00,Wunderground v.1.15,2013-03-25 18:31:00,
2013-03-25 12:36:00,57.5,27.1,30.27,ENE,72,17.0,18.0,31,0.00,,,0.00,Wunderground v.1.15,2013-03-25 18:36:00,
2013-03-25 12:41:00,57.4,24.5,30.27,ENE,71,18.0,18.0,28,0.00,,,0.00,Wunderground v.1.15,2013-03-25 18:41:00,
2013-03-25 12:46:00,57.1,25.9,30.27,ENE,60,17.0,25.0,30,0.00,,,0.00,Wunderground v.1.15,2013-03-25 18:46:00,
2013-03-25 12:51:00,57.5,29.3,30.26,NE,53,17.0,17.0,34,0.00,,,0.00,Wunderground v.1.15,2013-03-25 18:51:00,
2013-03-25 13:01:00,57.6,26.4,30.26,East,84,17.0,25.0,30,0.00,,,0.00,Wunderground v.1.15,2013-03-25 19:01:00,
2013-03-25 13:06:00,57.6,26.4,30.26,ENE,72,17.0,25.0,30,0.00,,,0.00,Wunderground v.1.15,2013-03-25 19:06:00,
2013-03-25 13:16:00,58.0,27.5,30.26,ENE,76,15.0,21.0,31,0.00,,,0.00,Wunderground v.1.15,2013-03-25 19:16:00,
2013-03-25 13:21:00,58.3,26.1,30.25,ENE,70,15.0,15.0,29,0.00,,,0.00,Wunderground v.1.15,2013-03-25 19:21:00,
2013-03-25 13:26:00,58.3,23.5,30.25,ENE,64,15.0,18.0,26,0.00,,,0.00,Wunderground v.1.15,2013-03-25 19:26:00,
2013-03-25 13:31:00,58.0,25.9,30.25,ENE,60,14.0,14.0,29,0.00,,,0.00,Wunderground v.1.15,2013-03-25 19:31:00,
2013-03-25 13:36:00,58.2,25.2,30.25,ENE,72,14.0,21.0,28,0.00,,,0.00,Wunderground v.1.15,2013-03-25 19:36:00,
2013-03-25 13:41:00,58.4,27.1,30.25,ENE,75,14.0,14.0,30,0.00,,,0.00,Wunderground v.1.15,2013-03-25 19:41:00,
2013-03-25 13:51:00,58.2,27.7,30.25,ENE,74,13.0,21.0,31,0.00,,,0.00,Wunderground v.1.15,2013-03-25 19:51:00,
2013-03-25 13:56:00,58.6,20.9,30.25,ENE,63,13.0,21.0,23,0.00,,,0.00,Wunderground v.1.15,2013-03-25 19:56:00,
2013-03-25 14:06:00,58.8,27.4,30.24,ENE,61,12.0,19.0,30,0.00,,,0.00,Wunderground v.1.15,2013-03-25 20:06:00,
2013-03-25 14:11:00,58.4,23.6,30.24,ENE,72,13.0,19.0,26,0.00,,,0.00,Wunderground v.1.15,2013-03-25 20:11:00,
2013-03-25 14:21:00,59.2,28.5,30.23,ENE,67,12.0,19.0,31,0.00,,,0.00,Wunderground v.1.15,2013-03-25 20:21:00,
2013-03-25 14:26:00,58.7,28.1,30.23,ENE,70,12.0,19.0,31,0.00,,,0.00,Wunderground v.1.15,2013-03-25 20:26:00,
2013-03-25 14:31:00,59.2,28.5,30.23,ENE,63,12.0,19.0,31,0.00,,,0.00,Wunderground v.1.15,2013-03-25 20:31:00,
2013-03-25 14:36:00,59.5,22.6,30.23,ENE,60,12.0,19.0,24,0.00,,,0.00,Wunderground v.1.15,2013-03-25 20:36:00,
2013-03-25 14:41:00,59.0,27.6,30.22,East,79,12.0,12.0,30,0.00,,,0.00,Wunderground v.1.15,2013-03-25 20:41:00,
2013-03-25 14:46:00,59.1,26.0,30.22,ENE,78,11.0,19.0,28,0.00,,,0.00,Wunderground v.1.15,2013-03-25 20:46:00,
2013-03-25 14:51:00,58.9,27.5,30.22,East,96,11.0,11.0,30,0.00,,,0.00,Wunderground v.1.15,2013-03-25 20:51:00,
2013-03-25 14:56:00,58.7,30.4,30.22,East,94,11.0,14.0,34,0.00,,,0.00,Wunderground v.1.15,2013-03-25 20:56:00,
2013-03-25 15:01:00,58.5,30.2,30.22,East,82,11.0,19.0,34,0.00,,,0.00,Wunderground v.1.15,2013-03-25 21:01:00,
2013-03-25 15:06:00,58.6,33.0,30.22,ENE,75,11.0,19.0,38,0.00,,,0.00,Wunderground v.1.15,2013-03-25 21:06:00,
2013-03-25 15:11:00,58.3,33.4,30.22,ESE,113,9.0,9.0,39,0.00,,,0.00,Wunderground v.1.15,2013-03-25 21:11:00,
2013-03-25 15:16:00,58.3,34.1,30.22,ESE,120,9.0,18.0,40,0.00,,,0.00,Wunderground v.1.15,2013-03-25 21:16:00,
2013-03-25 15:21:00,58.3,33.4,30.22,ESE,102,10.0,10.0,39,0.00,,,0.00,Wunderground v.1.15,2013-03-25 21:21:00,
2013-03-25 15:31:00,58.2,33.3,30.22,East,84,10.0,18.0,39,0.00,,,0.00,Wunderground v.1.15,2013-03-25 21:31:00,
2013-03-25 15:41:00,58.3,34.1,30.21,East,98,11.0,11.0,40,0.00,,,0.00,Wunderground v.1.15,2013-03-25 21:41:00,
2013-03-25 15:46:00,58.3,33.4,30.22,ENE,78,9.0,18.0,39,0.00,,,0.00,Wunderground v.1.15,2013-03-25 21:46:00,
2013-03-25 15:51:00,58.3,34.1,30.21,ENE,70,10.0,18.0,40,0.00,,,0.00,Wunderground v.1.15,2013-03-25 21:51:00,
2013-03-25 15:56:00,58.3,34.1,30.21,ENE,72,11.0,18.0,40,0.00,,,0.00,Wunderground v.1.15,2013-03-25 21:56:00,
2013-03-25 16:06:00,58.3,33.4,30.21,East,84,10.0,18.0,39,0.00,,,0.00,Wunderground v.1.15,2013-03-25 22:06:00,
2013-03-25 16:11:00,58.0,34.4,30.21,ENE,67,9.0,18.0,41,0.00,,,0.00,Wunderground v.1.15,2013-03-25 22:11:00,
2013-03-25 16:16:00,58.2,33.3,30.21,NE,51,9.0,18.0,39,0.00,,,0.00,Wunderground v.1.15,2013-03-25 22:16:00,
2013-03-25 16:21:00,58.0,35.6,30.21,East,94,10.0,18.0,43,0.00,,,0.00,Wunderground v.1.15,2013-03-25 22:21:00,
2013-03-25 16:31:00,58.1,34.5,30.21,ESE,113,8.0,18.0,41,0.00,,,0.00,Wunderground v.1.15,2013-03-25 22:31:00,
2013-03-25 16:36:00,58.0,33.8,30.20,ESE,103,8.0,18.0,40,0.00,,,0.00,Wunderground v.1.15,2013-03-25 22:36:00,
2013-03-25 16:41:00,57.9,34.9,30.21,ESE,103,9.0,9.0,42,0.00,,,0.00,Wunderground v.1.15,2013-03-25 22:41:00,
2013-03-25 16:51:00,58.1,34.5,30.20,ESE,103,8.0,18.0,41,0.00,,,0.00,Wunderground v.1.15,2013-03-25 22:51:00,
2013-03-25 16:56:00,57.9,34.3,30.20,ESE,115,8.0,18.0,41,0.00,,,0.00,Wunderground v.1.15,2013-03-25 22:56:00,
2013-03-25 17:01:00,57.9,35.5,30.20,ENE,78,8.0,18.0,43,0.00,,,0.00,Wunderground v.1.15,2013-03-25 23:01:00,
2013-03-25 17:07:00,57.8,34.2,30.20,ESE,122,9.0,18.0,41,0.00,,,0.00,Wunderground v.1.15,2013-03-25 23:07:00,
2013-03-25 17:16:00,57.9,34.9,30.20,ESE,113,9.0,15.0,42,0.00,,,0.00,Wunderground v.1.15,2013-03-25 23:16:00,
2013-03-25 17:21:00,58.0,37.9,30.21,ESE,113,9.0,9.0,47,0.00,,,0.00,Wunderground v.1.15,2013-03-25 23:21:00,
2013-03-25 17:26:00,57.8,34.2,30.21,ESE,112,9.0,15.0,41,0.00,,,0.00,Wunderground v.1.15,2013-03-25 23:26:00,
2013-03-25 17:31:00,57.7,34.7,30.21,ESE,102,9.0,9.0,42,0.00,,,0.00,Wunderground v.1.15,2013-03-25 23:31:00,
2013-03-25 17:41:00,57.7,34.7,30.21,East,85,8.0,15.0,42,0.00,,,0.00,Wunderground v.1.15,2013-03-25 23:41:00,
2013-03-25 17:46:00,57.7,35.9,30.21,ENE,67,8.0,15.0,44,0.00,,,0.00,Wunderground v.1.15,2013-03-25 23:46:00,
2013-03-25 17:51:00,57.6,34.1,30.20,SSE,156,9.0,9.0,41,0.00,,,0.00,Wunderground v.1.15,2013-03-25 23:51:00,
2013-03-25 17:56:00,57.7,34.7,30.21,ESE,115,8.0,15.0,42,0.00,,,0.00,Wunderground v.1.15,2013-03-25 23:56:00,
2013-03-25 18:01:00,57.6,34.7,30.21,ESE,112,8.0,15.0,42,0.00,,,0.00,Wunderground v.1.15,2013-03-26 00:01:00,
2013-03-25 18:06:00,57.6,33.4,30.21,SE,126,9.0,15.0,40,0.00,,,0.00,Wunderground v.1.15,2013-03-26 00:06:00,
2013-03-25 18:11:00,57.6,35.2,30.21,ESE,105,8.0,13.0,43,0.00,,,0.00,Wunderground v.1.15,2013-03-26 00:11:00,
2013-03-25 18:16:00,57.5,34.6,30.21,SE,129,8.0,13.0,42,0.00,,,0.00,Wunderground v.1.15,2013-03-26 00:16:00,
2013-03-25 18:21:00,57.4,36.2,30.22,East,85,8.0,13.0,45,0.00,,,0.00,Wunderground v.1.15,2013-03-26 00:21:00,
2013-03-25 18:26:00,57.3,35.6,30.22,ESE,112,8.0,13.0,44,0.00,,,0.00,Wunderground v.1.15,2013-03-26 00:26:00,
2013-03-25 18:36:00,57.2,36.6,30.22,ESE,120,8.0,13.0,46,0.00,,,0.00,Wunderground v.1.15,2013-03-26 00:36:00,
2013-03-25 18:46:00,57.2,36.0,30.23,East,101,7.0,13.0,45,0.00,,,0.00,Wunderground v.1.15,2013-03-26 00:46:00,
2013-03-25 18:51:00,57.2,34.9,30.23,ESE,122,7.0,7.0,43,0.00,,,0.00,Wunderground v.1.15,2013-03-26 00:51:00,
2013-03-25 18:56:00,57.2,36.6,30.23,ESE,111,7.0,9.0,46,0.00,,,0.00,Wunderground v.1.15,2013-03-26 00:56:00,
2013-03-25 19:01:00,57.2,35.5,30.23,ESE,115,7.0,13.0,44,0.00,,,0.00,Wunderground v.1.15,2013-03-26 01:01:00,
2013-03-25 19:06:00,57.3,36.1,30.23,SSE,162,7.0,13.0,45,0.00,,,0.00,Wunderground v.1.15,2013-03-26 01:06:00,
2013-03-25 19:16:00,57.3,36.1,30.24,SE,138,7.0,11.0,45,0.00,,,0.00,Wunderground v.1.15,2013-03-26 01:16:00,
2013-03-25 19:31:00,57.3,34.4,30.25,ESE,104,7.0,7.0,42,0.00,,,0.00,Wunderground v.1.15,2013-03-26 01:31:00,
2013-03-25 19:41:00,57.4,34.5,30.25,ESE,115,6.0,11.0,42,0.00,,,0.00,Wunderground v.1.15,2013-03-26 01:41:00,
2013-03-25 19:46:00,57.4,34.5,30.25,East,96,6.0,11.0,42,0.00,,,0.00,Wunderground v.1.15,2013-03-26 01:46:00,
2013-03-25 19:51:00,57.4,34.5,30.25,SE,136,7.0,7.0,42,0.00,,,0.00,Wunderground v.1.15,2013-03-26 01:51:00,
2013-03-25 19:56:00,57.5,36.3,30.25,SE,124,7.0,11.0,45,0.00,,,0.00,Wunderground v.1.15,2013-03-26 01:56:00,
2013-03-25 20:06:00,57.6,35.2,30.26,East,92,6.0,10.0,43,0.00,,,0.00,Wunderground v.1.15,2013-03-26 02:06:00,
2013-03-25 20:11:00,57.5,35.2,30.26,ESE,109,6.0,6.0,43,0.00,,,0.00,Wunderground v.1.15,2013-03-26 02:11:00,
2013-03-25 20:21:00,57.6,35.2,30.26,ESE,109,5.0,5.0,43,0.00,,,0.00,Wunderground v.1.15,2013-03-26 02:21:00,
2013-03-25 20:26:00,57.5,35.2,30.26,SE,129,5.0,10.0,43,0.00,,,0.00,Wunderground v.1.15,2013-03-26 02:26:00,
2013-03-25 20:31:00,57.5,36.9,30.27,ENE,64,3.0,10.0,46,0.00,,,0.00,Wunderground v.1.15,2013-03-26 02:31:00,
2013-03-25 20:36:00,57.3,35.6,30.27,ENE,76,4.0,10.0,44,0.00,,,0.00,Wunderground v.1.15,2013-03-26 02:36:00,
2013-03-25 20:41:00,57.4,36.8,30.27,East,98,4.0,4.0,46,0.00,,,0.00,Wunderground v.1.15,2013-03-26 02:41:00,
2013-03-25 20:46:00,57.4,36.2,30.28,ENE,75,3.0,5.0,45,0.00,,,0.00,Wunderground v.1.15,2013-03-26 02:46:00,
2013-03-25 20:51:00,57.4,36.2,30.28,ENE,74,3.0,3.0,45,0.00,,,0.00,Wunderground v.1.15,2013-03-26 02:51:00,
2013-03-25 20:56:00,57.4,36.2,30.28,East,79,3.0,10.0,45,0.00,,,0.00,Wunderground v.1.15,2013-03-26 02:56:00,
2013-03-25 21:01:00,57.3,35.6,30.29,ENE,77,3.0,10.0,44,0.00,,,0.00,Wunderground v.1.15,2013-03-26 03:01:00,
2013-03-25 21:06:00,57.4,35.6,30.29,ENE,72,4.0,10.0,44,0.00,,,0.00,Wunderground v.1.15,2013-03-26 03:06:00,
2013-03-25 21:11:00,57.3,36.1,30.29,ENE,74,4.0,7.0,45,0.00,,,0.00,Wunderground v.1.15,2013-03-26 03:11:00,
2013-03-25 21:21:00,57.2,36.6,30.30,East,81,4.0,4.0,46,0.00,,,0.00,Wunderground v.1.15,2013-03-26 03:21:00,
2013-03-25 21:26:00,57.1,36.5,30.30,NNW,336,3.0,7.0,46,0.00,,,0.00,Wunderground v.1.15,2013-03-26 03:26:00,
2013-03-25 21:31:00,55.3,35.9,30.30,NNW,345,2.0,7.0,48,0.00,,,0.00,Wunderground v.1.15,2013-03-26 03:31:00,
2013-03-25 21:36:00,54.5,35.7,30.30,NNW,335,1.0,7.0,49,0.00,,,0.00,Wunderground v.1.15,2013-03-26 03:36:00,
2013-03-25 21:41:00,53.9,35.7,30.31,North,350,1.0,1.0,50,0.00,,,0.00,Wunderground v.1.15,2013-03-26 03:41:00,
2013-03-25 21:46:00,53.8,35.6,30.31,NNE,16,1.0,7.0,50,0.00,,,0.00,Wunderground v.1.15,2013-03-26 03:46:00,
2013-03-25 21:51:00,53.8,36.1,30.31,NNW,333,1.0,7.0,51,0.00,,,0.00,Wunderground v.1.15,2013-03-26 03:51:00,
2013-03-25 21:56:00,52.4,34.8,30.31,North,350,2.0,7.0,51,0.00,,,0.00,Wunderground v.1.15,2013-03-26 03:56:00,
2013-03-25 22:01:00,51.6,34.5,30.31,NNW,336,2.0,7.0,52,0.00,,,0.00,Wunderground v.1.15,2013-03-26 04:01:00,
2013-03-25 22:06:00,51.2,34.2,30.31,North,351,2.0,7.0,52,0.00,,,0.00,Wunderground v.1.15,2013-03-26 04:06:00,
2013-03-25 22:11:00,51.2,34.2,30.32,NNW,341,2.0,4.0,52,0.00,,,0.00,Wunderground v.1.15,2013-03-26 04:11:00,
2013-03-25 22:16:00,51.1,34.1,30.32,NNW,335,2.0,4.0,52,0.00,,,0.00,Wunderground v.1.15,2013-03-26 04:16:00,
2013-03-25 22:21:00,50.7,34.2,30.32,North,353,3.0,4.0,53,0.00,,,0.00,Wunderground v.1.15,2013-03-26 04:21:00,
2013-03-25 22:26:00,50.4,33.9,30.32,NNW,341,3.0,4.0,53,0.00,,,0.00,Wunderground v.1.15,2013-03-26 04:26:00,
2013-03-25 22:31:00,50.3,34.3,30.32,NNW,348,3.0,5.0,54,0.00,,,0.00,Wunderground v.1.15,2013-03-26 04:31:00,
2013-03-25 22:36:00,50.6,34.1,30.32,NNE,16,4.0,5.0,53,0.00,,,0.00,Wunderground v.1.15,2013-03-26 04:36:00,
2013-03-25 22:41:00,51.2,33.2,30.32,NNE,16,5.0,8.0,50,0.00,,,0.00,Wunderground v.1.15,2013-03-26 04:41:00,
2013-03-25 22:51:00,52.1,33.5,30.32,NE,40,6.0,9.0,49,0.00,,,0.00,Wunderground v.1.15,2013-03-26 04:51:00,
2013-03-25 22:57:00,52.8,34.7,30.33,NNE,32,7.0,9.0,50,0.00,,,0.00,Wunderground v.1.15,2013-03-26 04:57:00,
2013-03-25 23:07:00,53.2,35.5,30.32,ENE,61,7.0,8.0,51,0.00,,,0.00,Wunderground v.1.15,2013-03-26 05:07:00,
2013-03-25 23:11:00,53.9,36.2,30.32,NE,56,7.0,13.0,51,0.00,,,0.00,Wunderground v.1.15,2013-03-26 05:11:00,
2013-03-25 23:26:00,56.2,35.7,30.33,ENE,63,12.0,17.0,46,0.00,,,0.00,Wunderground v.1.15,2013-03-26 05:26:00,
2013-03-25 23:31:00,56.6,35.5,30.33,NE,56,13.0,13.0,45,0.00,,,0.00,Wunderground v.1.15,2013-03-26 05:31:00,
2013-03-25 23:36:00,56.2,36.2,30.33,ENE,59,11.0,13.0,47,0.00,,,0.00,Wunderground v.1.15,2013-03-26 05:36:00,
2013-03-25 23:46:00,56.3,36.3,30.33,NE,34,12.0,13.0,47,0.00,,,0.00,Wunderground v.1.15,2013-03-26 05:46:00,
2013-03-25 23:51:00,56.5,36.5,30.33,NE,47,14.0,17.0,47,0.00,,,0.00,Wunderground v.1.15,2013-03-26 05:51:00,
2013-03-25 23:56:00,56.7,36.7,30.33,ENE,69,15.0,21.0,47,0.00,,,0.00,Wunderground v.1.15,2013-03-26 05:56:00,